星链-31915 (STARLINK-31915 )

导读 | 豆包AI

STARLINK-31915是美国太空探索技术公司星链星座的组网卫星,于2024年5月18日发射入轨,隶属于SpaceX打造的星链互联网卫星星座。星链系统旨在为全球提供覆盖偏远地区的低延迟宽带互联网服务,该卫星的入轨进一步扩充了星链低轨卫星星座的规模,提升星座服务覆盖能力与容量。

基本信息
目录编号:
59796
目录名称:
STARLINK-31915
国际标识:
2024-093Q
轨道中心:
EARTH
卫星名称:
星链-31915
卫星全名:
星链-31915 (STARLINK-31915 )
卫星状态:
已陨落 最后检测时间 2024-06-04
发射日期:
2024-05-18 UTC
国别 :
美国 (US)
星等 :
--
轨道信息
数据来源 国际轨道数据
星历时间: 2024-06-04T10:14:26+0800
轨道信息已过期649天
半长轴: 6558.863km
偏心率: 0.0006538
轨道倾角: 42.989°
近地点辐角 334.870°
升交点赤经 275.464°
平近点角 141.713°
近地点: 176.439km
远地点: 185.017km
周期: 88.105分钟
每日圈数: 16.34406
详细信息
固有亮度:
5
最大亮度:
1.5
卫星平台:
Starlink v2.0 mini
覆盖范围:
全球
运营商:
太空探索技术公司
运营商所在国:
美国
制造商(研发单位):
太空探索技术公司
制造商所在国:
美国
使用方式:
暂无
卫星简介
星链(Starlink)计划是由太空探索技术公司(SpaceX)提出的一个巨型低轨卫星互联网星座项目,计划在2019年至2024年间在太空搭建由约1.2万颗卫星组成的“星链”网络,其中1584颗将部署在地球上空550千米处的近地轨道,并从2020年开始工作。该卫星已陨落。